Location: Stara Lesna
(49.1528°N, 20.2911°E)
Time: 19:08:12
(UTC+02:00)

Thor Agena Rocket - Pass Details

Date: 13 July 2020
Orbit: 759 x 808 km, 99.0° (Epoch: 10 August)

Event Time Altitude Azimuth Distance (km) Brightness Sun altitude
Rises 00:01:19 0° 12° (NNE) 3,255 8.0 -18.4°
Reaches altitude 10° 00:03:40 10° 9° (N) 2,318 7.1 -18.5°
Maximum altitude 00:08:40 59° 291° (WNW) 880 3.9 -18.6°
Enters shadow 00:11:44 23° 219° (SW) 1,582 4.7 -18.7°
